Change the Weather History Date:

Tuesday, July 8, 2014

  Actual Average Record
Temperature  
Mean Temperature 81 °F 79 °F  
Max Temperature 85 °F 84 °F 87 °F (1981)
Min Temperature 76 °F 74 °F 69 °F (1956)
Degree Days  
Heating Degree Days 0 0  
Month to date heating degree days 0 0  
Since 1 June heating degree days 0 0  
Since 1 July heating degree days 0 0  
Cooling Degree Days 16 14  
Month to date cooling degree days 119 112  
Year to date cooling degree days 1720 1745  
Since 1 June cooling degree days 499 506  
Growing Degree Days 30 (Base 50)    
Moisture  
Dew Point 70 °F    
Average Humidity 72    
Maximum Humidity 82    
Minimum Humidity 61    
Precipitation  
Precipitation T in 0.05 in 0.50 in (1967)
Month to date precipitation 0.12 0.43  
Year to date precipitation 19.04 17.88  
Snow  
Snow 0.00 in - - ()
Month to date snowfall 0.0  
Since 1 June snowfall 0.0  
Since 1 July snowfall 0.0  
Snow Depth 0.00 in    
Sea Level Pressure  
Sea Level Pressure 30.02 in    
Wind  
Wind Speed 15 mph (NE)    
Max Wind Speed 20 mph    
Max Gust Speed 23 mph    
Visibility 10 miles    
Events Rain    
T = Trace of Precipitation, MM = Missing Value Source: NWS Daily Summary

Daily Weather History Graph

Daily Weather History Graph

Search for Another Location

Airport or City:

Trip Planner

Search our weather history database for the weather conditions in past years. The results will help you decide how hot, cold, wet, or windy it might be!

Date:

Astronomy

Jul. 08, 2014 Rise Set
Actual Time 6:00 AM HST 7:24 PM HST
Civil Twilight 5:35 AM HST 7:49 PM HST
Nautical Twilight 5:05 AM HST 8:18 PM HST
Astronomical Twilight 4:35 AM HST 8:49 PM HST
Moon 3:54 PM HST (7/8) 2:27 AM HST (7/8)
Length of Visible Light 14h 14m
Length of Day
13h 24m
Waxing Gibbous, 83% of the Moon is Illuminated
Jul 8
Waxing Gibbous
Jul 12
Full
Jul 18
Last Quarter
Jul 26
New
Aug 3
First Quarter

Hourly Weather History & Observations

Time (HST) Temp. Heat Index Dew Point Humidity Pressure Visibility Wind Dir Wind Speed Gust Speed Precip Events Conditions
12:53 AM 77.0 °F - 68.0 °F 74% 30.01 in 10.0 mi NE 13.8 mph - N/A   Scattered Clouds
1:53 AM 77.0 °F - 66.0 °F 69% 29.99 in 10.0 mi ENE 13.8 mph - N/A   Partly Cloudy
2:53 AM 75.9 °F - 68.0 °F 76% 29.99 in 10.0 mi ENE 12.7 mph - N/A   Partly Cloudy
3:53 AM 77.0 °F - 68.0 °F 74% 29.98 in 10.0 mi ENE 16.1 mph - N/A   Mostly Cloudy
4:53 AM 77.0 °F - 68.0 °F 74% 29.99 in 10.0 mi ENE 12.7 mph - N/A   Scattered Clouds
5:53 AM 77.0 °F - 68.0 °F 74% 29.99 in 10.0 mi NE 16.1 mph - N/A   Overcast
6:53 AM 75.9 °F - 70.0 °F 82% 30.01 in 10.0 mi ENE 15.0 mph 20.7 mph 0.00 in Rain Light Rain
7:53 AM 79.0 °F - 69.1 °F 72% 30.02 in 10.0 mi ENE 15.0 mph - N/A   Clear
8:53 AM 80.1 °F 83.2 °F 70.0 °F 71% 30.03 in 10.0 mi ENE 15.0 mph - N/A   Overcast
9:53 AM 80.1 °F 82.9 °F 69.1 °F 69% 30.04 in 10.0 mi NE 13.8 mph - N/A   Mostly Cloudy
10:53 AM 82.4 °F 87.2 °F 71.6 °F 70% 30.04 in 10.0 mi ENE 13.8 mph - N/A   Mostly Cloudy
11:53 AM 84.0 °F 88.4 °F 70.0 °F 63% 30.03 in 10.0 mi ENE 15.0 mph - N/A   Partly Cloudy
12:53 PM 84.0 °F 88.4 °F 70.0 °F 63% 30.02 in 10.0 mi ENE 15.0 mph - N/A   Partly Cloudy
1:53 PM 84.0 °F 88.4 °F 70.0 °F 63% 30.01 in 10.0 mi NE 15.0 mph - N/A   Partly Cloudy
2:53 PM 82.9 °F 87.5 °F 71.1 °F 67% 30.01 in 10.0 mi NE 18.4 mph - N/A   Clear
3:53 PM 82.0 °F 86.3 °F 71.1 °F 69% 30.00 in 10.0 mi NE 15.0 mph - N/A   Partly Cloudy
4:53 PM 81.0 °F 84.4 °F 70.0 °F 69% 29.99 in 10.0 mi ENE 17.3 mph - N/A   Scattered Clouds
5:53 PM 79.0 °F - 71.1 °F 77% 30.00 in 10.0 mi NE 13.8 mph - N/A   Scattered Clouds
6:53 PM 78.1 °F - 70.0 °F 76% 30.01 in 10.0 mi NE 17.3 mph - N/A   Scattered Clouds
7:53 PM 75.9 °F - 71.1 °F 85% 30.02 in 10.0 mi NNE 16.1 mph - N/A   Partly Cloudy
8:07 PM 77.0 °F - 71.6 °F 83% 30.04 in 10.0 mi NNE 15.0 mph - N/A   Mostly Cloudy
8:41 PM 75.2 °F - 71.6 °F 89% 30.05 in 6.0 mi NE 15.0 mph 24.2 mph 0.00 in Rain Light Rain
8:53 PM 75.9 °F - 72.0 °F 87% 30.04 in 10.0 mi NE 16.1 mph - 0.00 in   Mostly Cloudy
9:53 PM 75.9 °F - 72.0 °F 87% 30.06 in 10.0 mi ENE 16.1 mph - N/A   Scattered Clouds
10:53 PM 77.0 °F - 71.1 °F 82% 30.06 in 10.0 mi ENE 17.3 mph - N/A   Mostly Cloudy
11:53 PM 77.0 °F - 70.0 °F 79% 30.06 in 10.0 mi ENE 16.1 mph - N/A   Mostly Cloudy